DHTOM EDLH-EDLH

Flight info

Callsign DHTOM
Flight time 0h 45m
Altitude 2000
Route DCT SOEST DCT MOEHNESEE DCT EDLZ DCT SOEST DCT
Aircraft EC45/L-V/N

Departure

Time 2026-04-12 16:32
Airport Hamm-Lippewiesen Airfield (EDLH)

Arrival

Time 2026-04-12 17:17
Airport Hamm-Lippewiesen Airfield (EDLH)
Time Latitude Longitude Altitude Speed Heading
2026-04-12 16:17 51.68979 7.81415 192 ft 0 kts 152°
2026-04-12 16:28 51.68977 7.81416 194 ft 3 kts 164°
2026-04-12 16:29 51.68972 7.81412 201 ft 0 kts 147°
2026-04-12 16:29 51.68972 7.81413 201 ft 0 kts 147°
2026-04-12 16:29 51.68965 7.81406 199 ft 2 kts 146°
2026-04-12 16:29 51.68957 7.81403 197 ft 2 kts 146°
2026-04-12 16:30 51.68937 7.81418 197 ft 3 kts 146°
2026-04-12 16:30 51.68925 7.81430 200 ft 2 kts 146°
2026-04-12 16:30 51.68912 7.81437 199 ft 2 kts 176°
2026-04-12 16:30 51.68905 7.81426 208 ft 3 kts 251°
2026-04-12 16:31 51.68881 7.81286 247 ft 21 kts 246°
2026-04-12 16:31 51.68828 7.81028 280 ft 29 kts 247°
2026-04-12 16:31 51.68729 7.80523 348 ft 64 kts 249°
2026-04-12 16:31 51.68556 7.79825 593 ft 66 kts 244°
2026-04-12 16:32 51.68370 7.79163 810 ft 64 kts 243°
2026-04-12 16:32 51.68182 7.78383 933 ft 87 kts 253°
2026-04-12 16:32 51.68346 7.77466 986 ft 87 kts 307°
2026-04-12 16:32 51.68890 7.77093 1002 ft 88 kts
2026-04-12 16:33 51.69493 7.77228 1074 ft 89 kts 12°
2026-04-12 16:33 51.70112 7.77425 1164 ft 90 kts 12°
2026-04-12 16:33 51.70714 7.77630 1185 ft 88 kts 13°
2026-04-12 16:33 51.71301 7.77908 1197 ft 89 kts 36°
2026-04-12 16:34 51.71667 7.78655 1205 ft 85 kts 65°
2026-04-12 16:34 51.71945 7.79503 1203 ft 87 kts 67°
2026-04-12 16:34 51.72257 7.80494 1256 ft 107 kts 67°
2026-04-12 16:34 51.72583 7.81561 1573 ft 104 kts 68°
2026-04-12 16:35 51.72926 7.82617 1819 ft 108 kts 68°
2026-04-12 16:35 51.73082 7.83760 1919 ft 103 kts 94°
2026-04-12 16:35 51.73085 7.84889 1957 ft 101 kts 97°
2026-04-12 16:35 51.73084 7.86041 1979 ft 103 kts 96°
2026-04-12 16:36 51.73078 7.87191 1989 ft 102 kts 97°
2026-04-12 16:36 51.73069 7.88344 1991 ft 101 kts 100°
2026-04-12 16:36 51.72928 7.89430 1998 ft 98 kts 111°
2026-04-12 16:36 51.72713 7.90459 1994 ft 96 kts 117°
2026-04-12 16:37 51.72469 7.91470 1996 ft 96 kts 117°
2026-04-12 16:37 51.72112 7.92345 1995 ft 93 kts 137°
2026-04-12 16:37 51.71659 7.93086 2000 ft 93 kts 140°
2026-04-12 16:37 51.71198 7.93825 1994 ft 93 kts 140°
2026-04-12 16:38 51.70744 7.94553 1999 ft 93 kts 140°
2026-04-12 16:38 51.70441 7.95044 1997 ft 92 kts 140°
2026-04-12 16:38 51.69998 7.95789 1992 ft 94 kts 133°
2026-04-12 16:38 51.69667 7.96722 1995 ft 96 kts 123°
2026-04-12 16:39 51.69362 7.97669 1999 ft 96 kts 123°
2026-04-12 16:39 51.69012 7.98591 2000 ft 94 kts 139°
2026-04-12 16:39 51.68466 7.99131 1995 ft 92 kts 156°
2026-04-12 16:39 51.67895 7.99582 1996 ft 92 kts 156°
2026-04-12 16:40 51.67320 8.00027 1995 ft 92 kts 157°
2026-04-12 16:40 51.66748 8.00471 1995 ft 91 kts 157°
2026-04-12 16:40 51.66179 8.00917 1993 ft 90 kts 157°
2026-04-12 16:40 51.65618 8.01359 1995 ft 90 kts 156°
2026-04-12 16:41 51.65050 8.01811 2000 ft 90 kts 156°
2026-04-12 16:41 51.64497 8.02250 1998 ft 90 kts 156°
2026-04-12 16:41 51.63937 8.02717 1995 ft 90 kts 153°
2026-04-12 16:41 51.63405 8.03242 1994 ft 90 kts 152°
2026-04-12 16:42 51.62864 8.03784 1999 ft 90 kts 152°
2026-04-12 16:42 51.62335 8.04317 1999 ft 90 kts 152°
2026-04-12 16:42 51.61804 8.04851 1996 ft 90 kts 152°
2026-04-12 16:43 51.60152 8.06195 1997 ft 88 kts 174°
2026-04-12 16:43 51.59539 8.06290 1996 ft 89 kts 175°
2026-04-12 16:43 51.58919 8.06380 1994 ft 89 kts 176°
2026-04-12 16:44 51.58302 8.06476 1996 ft 90 kts 176°
2026-04-12 16:44 51.57683 8.06574 1995 ft 90 kts 175°
2026-04-12 16:44 51.57060 8.06673 1996 ft 89 kts 176°
2026-04-12 16:44 51.56450 8.06777 1997 ft 88 kts 175°
2026-04-12 16:45 51.55836 8.06761 1999 ft 88 kts 185°
2026-04-12 16:45 51.55226 8.06646 1999 ft 89 kts 186°
2026-04-12 16:45 51.54615 8.06542 1995 ft 86 kts 186°
2026-04-12 16:45 51.54022 8.06447 1994 ft 86 kts 186°
2026-04-12 16:46 51.53418 8.06347 1995 ft 88 kts 186°
2026-04-12 16:46 51.52810 8.06242 1994 ft 87 kts 185°
2026-04-12 16:46 51.52204 8.06118 1919 ft 89 kts 185°
2026-04-12 16:46 51.51587 8.06060 1844 ft 88 kts 180°
2026-04-12 16:47 51.50978 8.06055 1810 ft 88 kts 180°
2026-04-12 16:47 51.50358 8.06058 1800 ft 87 kts 179°
2026-04-12 16:47 51.49821 8.06080 1682 ft 70 kts 178°
2026-04-12 16:47 51.49353 8.06096 1584 ft 67 kts 179°
2026-04-12 16:48 51.48863 8.06179 1473 ft 75 kts 166°
2026-04-12 16:48 51.48409 8.06594 1394 ft 77 kts 135°
2026-04-12 16:48 51.48269 8.07424 1298 ft 80 kts 93°
2026-04-12 16:48 51.48290 8.08317 1266 ft 81 kts 90°
2026-04-12 16:49 51.48308 8.09221 1253 ft 80 kts 90°
2026-04-12 16:49 51.48362 8.10115 1377 ft 85 kts 82°
2026-04-12 16:49 51.48522 8.11104 1717 ft 95 kts 82°
2026-04-12 16:49 51.48721 8.12222 1904 ft 106 kts 79°
2026-04-12 16:50 51.48944 8.13336 1957 ft 107 kts 79°
2026-04-12 16:50 51.49393 8.14339 1981 ft 114 kts 41°
2026-04-12 16:50 51.50145 8.14727 1990 ft 116 kts
2026-04-12 16:50 51.50898 8.14765 1988 ft 104 kts
2026-04-12 16:51 51.51633 8.14783 1992 ft 107 kts
2026-04-12 16:51 51.52307 8.15168 1991 ft 104 kts 45°
2026-04-12 16:51 51.52774 8.16020 1984 ft 98 kts 62°
2026-04-12 16:51 51.53180 8.16887 1828 ft 97 kts 62°
2026-04-12 16:52 51.53552 8.17790 1753 ft 94 kts 72°
2026-04-12 16:52 51.53779 8.18723 1618 ft 83 kts 77°
2026-04-12 16:52 51.53984 8.19575 1353 ft 81 kts 76°
2026-04-12 16:52 51.54161 8.20430 1245 ft 81 kts 77°
2026-04-12 16:53 51.54315 8.21300 1218 ft 80 kts 77°
2026-04-12 16:53 51.54476 8.22167 1205 ft 81 kts 73°
2026-04-12 16:53 51.54648 8.23019 1199 ft 81 kts 80°
2026-04-12 16:53 51.54726 8.23920 1196 ft 80 kts 84°
2026-04-12 16:54 51.54817 8.24798 1196 ft 81 kts 73°
2026-04-12 16:54 51.55200 8.25430 1199 ft 83 kts 22°
2026-04-12 16:54 51.55766 8.25349 1198 ft 85 kts 336°
2026-04-12 16:54 51.56292 8.24891 1198 ft 86 kts 319°
2026-04-12 16:55 51.56521 8.24048 1203 ft 83 kts 265°
2026-04-12 16:55 51.56406 8.23231 1201 ft 73 kts 251°
2026-04-12 16:55 51.56265 8.22443 1197 ft 74 kts 253°
2026-04-12 16:55 51.56157 8.21639 1197 ft 74 kts 256°
2026-04-12 16:56 51.56066 8.20827 1200 ft 71 kts 259°
2026-04-12 16:56 51.56001 8.20024 1200 ft 74 kts 259°
2026-04-12 16:56 51.56017 8.19197 1197 ft 77 kts 292°
2026-04-12 16:56 51.56424 8.18671 1203 ft 78 kts 337°
2026-04-12 16:57 51.56891 8.18414 1207 ft 61 kts
2026-04-12 16:57 51.57230 8.18644 1173 ft 53 kts 56°
2026-04-12 16:57 51.57369 8.19156 881 ft 49 kts 84°
2026-04-12 16:57 51.57404 8.19692 740 ft 47 kts 78°
2026-04-12 16:58 51.57482 8.20171 650 ft 40 kts 63°
2026-04-12 16:58 51.57584 8.20561 561 ft 34 kts 63°
2026-04-12 16:58 51.57674 8.20891 515 ft 31 kts 62°
2026-04-12 16:58 51.57747 8.21177 502 ft 20 kts 63°
2026-04-12 16:59 51.57795 8.21320 484 ft 13 kts 62°
2026-04-12 16:59 51.57849 8.21457 474 ft 13 kts 62°
2026-04-12 16:59 51.57880 8.21553 448 ft 7 kts 58°
2026-04-12 16:59 51.57918 8.21595 439 ft 5 kts
2026-04-12 17:00 51.57922 8.21579 427 ft 2 kts
2026-04-12 17:00 51.57927 8.21581 409 ft 0 kts 359°
2026-04-12 17:03 51.57927 8.21580 409 ft 1 kts
2026-04-12 17:04 51.57940 8.21617 424 ft 10 kts 88°
2026-04-12 17:04 51.57924 8.21931 542 ft 51 kts 77°
2026-04-12 17:04 51.57993 8.22764 708 ft 85 kts 76°
2026-04-12 17:04 51.58076 8.23619 996 ft 80 kts 78°
2026-04-12 17:05 51.58216 8.24637 1133 ft 103 kts 76°
2026-04-12 17:05 51.58266 8.25759 1177 ft 100 kts 104°
2026-04-12 17:05 51.57854 8.26601 1192 ft 98 kts 149°
2026-04-12 17:05 51.57214 8.26950 1198 ft 97 kts 164°
2026-04-12 17:06 51.56535 8.27013 1197 ft 100 kts 195°
2026-04-12 17:06 51.56023 8.26299 1317 ft 103 kts 240°
2026-04-12 17:06 51.55847 8.25176 1701 ft 104 kts 255°
2026-04-12 17:06 51.55764 8.24015 1889 ft 104 kts 255°
2026-04-12 17:07 51.55705 8.22857 1950 ft 103 kts 256°
2026-04-12 17:07 51.55648 8.21722 1972 ft 103 kts 256°
2026-04-12 17:07 51.55590 8.20565 1980 ft 103 kts 256°
2026-04-12 17:07 51.55531 8.19417 1992 ft 102 kts 256°
2026-04-12 17:08 51.55603 8.18274 1991 ft 111 kts 285°
2026-04-12 17:08 51.56142 8.17355 1995 ft 118 kts 326°
2026-04-12 17:08 51.56860 8.16691 1992 ft 118 kts 322°
2026-04-12 17:08 51.57528 8.15950 1997 ft 117 kts 321°
2026-04-12 17:09 51.58194 8.15206 1996 ft 117 kts 321°
2026-04-12 17:09 51.58819 8.14404 1996 ft 114 kts 310°
2026-04-12 17:09 51.59391 8.13497 1997 ft 114 kts 309°
2026-04-12 17:09 51.59949 8.12598 1995 ft 114 kts 309°
2026-04-12 17:10 51.60512 8.11691 1995 ft 114 kts 309°
2026-04-12 17:10 51.61074 8.10778 1994 ft 114 kts 309°
2026-04-12 17:10 51.61637 8.09877 1992 ft 115 kts 311°
2026-04-12 17:10 51.62220 8.09005 1998 ft 115 kts 311°
2026-04-12 17:11 51.62803 8.08136 1993 ft 115 kts 311°
2026-04-12 17:11 51.63392 8.07255 1992 ft 114 kts 311°
2026-04-12 17:11 51.63978 8.06383 1994 ft 114 kts 311°
2026-04-12 17:11 51.64562 8.05518 1999 ft 115 kts 312°
2026-04-12 17:12 51.65169 8.04683 1994 ft 115 kts 315°
2026-04-12 17:12 51.65778 8.03856 1990 ft 115 kts 315°
2026-04-12 17:12 51.66384 8.03029 1995 ft 115 kts 315°
2026-04-12 17:12 51.67000 8.02190 1995 ft 115 kts 315°
2026-04-12 17:13 51.67606 8.01367 1995 ft 114 kts 315°
2026-04-12 17:13 51.68221 8.00529 1994 ft 114 kts 315°
2026-04-12 17:13 51.68828 7.99701 1976 ft 114 kts 314°
2026-04-12 17:13 51.69429 7.98864 1866 ft 113 kts 310°
2026-04-12 17:14 51.69877 7.97864 1818 ft 111 kts 295°
2026-04-12 17:14 51.70282 7.96798 1802 ft 111 kts 295°
2026-04-12 17:14 51.70677 7.95742 1794 ft 111 kts 295°
2026-04-12 17:14 51.70934 7.94615 1796 ft 106 kts 274°
2026-04-12 17:15 51.71068 7.93449 1748 ft 104 kts 272°
2026-04-12 17:15 51.71177 7.92312 1549 ft 102 kts 272°
2026-04-12 17:15 51.71256 7.91163 1456 ft 103 kts 268°
2026-04-12 17:15 51.71295 7.90003 1422 ft 104 kts 266°
2026-04-12 17:16 51.71338 7.88933 1401 ft 90 kts 266°
2026-04-12 17:16 51.71302 7.87941 1370 ft 89 kts 251°
2026-04-12 17:16 51.71148 7.87021 1260 ft 80 kts 238°
2026-04-12 17:16 51.70879 7.86278 1211 ft 76 kts 232°
2026-04-12 17:17 51.70578 7.85558 1202 ft 73 kts 230°
2026-04-12 17:17 51.70300 7.84953 1095 ft 67 kts 226°
2026-04-12 17:17 51.70018 7.84366 907 ft 60 kts 228°
2026-04-12 17:17 51.69800 7.83894 716 ft 49 kts 233°
2026-04-12 17:18 51.69629 7.83427 577 ft 44 kts 242°
2026-04-12 17:18 51.69489 7.83002 449 ft 43 kts 240°
2026-04-12 17:18 51.69346 7.82601 352 ft 38 kts 238°
2026-04-12 17:18 51.69216 7.82259 255 ft 35 kts 238°
2026-04-12 17:19 51.69114 7.81983 252 ft 17 kts 238°
2026-04-12 17:19 51.69092 7.81910 240 ft 4 kts 238°
2026-04-12 17:19 51.69069 7.81814 235 ft 13 kts 238°
2026-04-12 17:19 51.69027 7.81706 227 ft 10 kts 243°
2026-04-12 17:20 51.68996 7.81612 224 ft 10 kts 253°
2026-04-12 17:20 51.68976 7.81504 214 ft 10 kts 243°
2026-04-12 17:20 51.68953 7.81431 207 ft 3 kts 244°
2026-04-12 17:20 51.68950 7.81394 201 ft 3 kts 244°
2026-04-12 17:21 51.68940 7.81372 207 ft 2 kts 244°
2026-04-12 17:21 51.68936 7.81359 201 ft 1 kts 244°
2026-04-12 17:21 51.68937 7.81358 196 ft 0 kts 243°
2026-04-12 17:41 51.68938 7.81357 192 ft 0 kts 213°
2026-04-12 17:41 51.68921 7.81338 202 ft 2 kts 220°
2026-04-12 17:42 51.68901 7.81310 206 ft 8 kts 220°
2026-04-12 17:42 51.68858 7.81243 209 ft 8 kts 216°
2026-04-12 17:42 51.68830 7.81306 221 ft 14 kts 216°
2026-04-12 17:43 51.68698 7.81115 286 ft 1 kts 76°
2026-04-12 17:43 51.68692 7.81129 289 ft 3 kts 45°
2026-04-12 17:43 51.68688 7.81140 269 ft 7 kts 56°
2026-04-12 17:43 51.68665 7.81087 377 ft 34 kts 236°
2026-04-12 17:44 51.68771 7.80854 584 ft 16 kts 239°
2026-04-12 17:44 51.68837 7.80633 442 ft 7 kts 64°
2026-04-12 17:44 51.68836 7.80617 437 ft 5 kts 73°
2026-04-12 17:45 51.68871 7.80673 430 ft 8 kts 87°
2026-04-12 17:45 51.68915 7.80721 421 ft 6 kts 91°
2026-04-12 17:45 51.68939 7.80764 418 ft 4 kts 91°
2026-04-12 17:45 51.68933 7.80835 402 ft 9 kts 91°
2026-04-12 17:46 51.68929 7.80950 383 ft 8 kts 91°
2026-04-12 17:46 51.68931 7.81034 361 ft 8 kts 91°
2026-04-12 17:46 51.68930 7.81119 346 ft 7 kts 91°
2026-04-12 17:46 51.68927 7.81210 337 ft 7 kts 91°
2026-04-12 17:47 51.68928 7.81225 326 ft 2 kts 79°
2026-04-12 17:47 51.68921 7.81215 322 ft 3 kts 87°
2026-04-12 17:47 51.68919 7.81257 286 ft 4 kts 71°
2026-04-12 17:47 51.68932 7.81291 255 ft 3 kts 89°
2026-04-12 17:48 51.68931 7.81322 236 ft 3 kts 95°
2026-04-12 17:48 51.68928 7.81352 207 ft 1 kts 62°
2026-04-12 17:49 51.68928 7.81356 213 ft 0 kts 46°
2026-04-12 17:49 51.68926 7.81361 222 ft 0 kts 46°
2026-04-12 17:49 51.68925 7.81371 216 ft 3 kts 46°
2026-04-12 17:50 51.68924 7.81374 209 ft 0 kts 46°
2026-04-12 17:50 51.68924 7.81373 203 ft 0 kts 46°
2026-04-12 17:50 51.68924 7.81372 199 ft 0 kts 46°
2026-04-12 17:51 51.68928 7.81397 201 ft 6 kts 56°
2026-04-12 17:51 51.68923 7.81546 232 ft 23 kts 56°
2026-04-12 17:51 51.69040 7.81925 321 ft 51 kts 47°
2026-04-12 17:52 51.69175 7.82500 488 ft 63 kts 65°
2026-04-12 17:52 51.69434 7.83172 520 ft 77 kts 49°
2026-04-12 17:52 51.69634 7.83690 509 ft 87 kts 60°
2026-04-12 17:52 51.69951 7.84644 532 ft 99 kts 61°
2026-04-12 17:53 51.70274 7.85604 593 ft 97 kts 61°
2026-04-12 17:53 51.70607 7.86569 901 ft 98 kts 62°
2026-04-12 17:53 51.70946 7.87529 1084 ft 98 kts 58°
2026-04-12 17:53 51.71486 7.88164 1157 ft 100 kts 18°
2026-04-12 17:54 51.72169 7.88061 1180 ft 102 kts 339°
2026-04-12 17:54 51.72797 7.87543 1195 ft 102 kts 333°
2026-04-12 17:54 51.73423 7.86987 1201 ft 102 kts 333°
2026-04-12 17:54 51.74015 7.86365 1200 ft 103 kts 316°
2026-04-12 17:55 51.74294 7.85325 1198 ft 104 kts 274°
2026-04-12 17:55 51.74120 7.84199 1203 ft 103 kts 246°
2026-04-12 17:55 51.73824 7.83157 1204 ft 102 kts 244°
2026-04-12 17:55 51.73520 7.82121 1202 ft 102 kts 244°
2026-04-12 17:56 51.73215 7.81085 1200 ft 102 kts 244°
2026-04-12 17:56 51.72906 7.80034 1202 ft 103 kts 244°
2026-04-12 17:56 51.72600 7.78999 1203 ft 102 kts 244°
2026-04-12 17:56 51.72187 7.78074 1202 ft 102 kts 216°
2026-04-12 17:57 51.71526 7.77768 1204 ft 99 kts 179°
2026-04-12 17:57 51.70893 7.77789 1178 ft 87 kts 175°
2026-04-12 17:57 51.70284 7.77833 1070 ft 89 kts 175°
2026-04-12 17:57 51.69662 7.77875 1026 ft 88 kts 175°
2026-04-12 17:58 51.69080 7.77961 1011 ft 79 kts 165°
2026-04-12 17:58 51.68579 7.78300 943 ft 79 kts 142°
2026-04-12 17:58 51.68343 7.79054 843 ft 77 kts 94°
2026-04-12 17:58 51.68360 7.79837 757 ft 59 kts 79°
2026-04-12 17:59 51.68510 7.80331 601 ft 41 kts 61°
2026-04-12 17:59 51.68643 7.80663 503 ft 32 kts 61°
2026-04-12 17:59 51.68754 7.80951 403 ft 23 kts 60°
2026-04-12 17:59 51.68800 7.81093 358 ft 12 kts 56°
2026-04-12 18:00 51.68853 7.81214 313 ft 13 kts 46°
2026-04-12 18:00 51.68905 7.81296 257 ft 7 kts 58°
2026-04-12 18:00 51.68920 7.81338 229 ft 3 kts 52°
2026-04-12 18:00 51.68929 7.81366 221 ft 3 kts 327°
2026-04-12 18:01 51.68923 7.81365 217 ft 2 kts 338°
2026-04-12 18:01 51.68937 7.81376 214 ft 3 kts 318°
2026-04-12 18:01 51.68945 7.81373 195 ft 3 kts 167°
2026-04-12 18:01 51.68944 7.81365 192 ft 0 kts 161°